logo Eve Who16,790,745 Characters
802,461 Corporations
8,573 Alliances

Home Pilots Corporations Alliances FAQ 

corp logo
alli logo
character image
Character:The Aggressor
Corporation:SniggWaffe
Alliance:WAFFLES.
Links:zKillboard
EveSkillBoard
Eve-Search
Last Updated: 2018-09-21 03:57:49 | 912054032
Corp. History
 NameJoinedLeft
corp logoSniggWaffe2018/08/31 22:02
corp logoGaroun Investment Bank2018/08/29 21:152018/08/31 22:01
corp logoEmpire of Decadence2018/08/12 18:272018/08/29 21:14
corp logoGaroun Investment Bank2018/08/12 18:272018/08/12 18:26
corp logoPack of Psychos2018/08/07 23:122018/08/12 18:26
corp logoSyndicate Enterprise2018/06/19 20:162018/08/07 23:11
corp logoGaroun Investment Bank2018/06/19 20:162018/06/19 20:15
corp logoNameless.2018/03/03 17:222018/06/19 20:15
corp logoGaroun Investment Bank2018/03/03 17:162018/03/03 17:21
corp logoTri-gun2018/02/03 20:192018/03/03 17:15
corp logoGaroun Investment Bank2018/02/03 20:182018/02/03 20:18
corp logoPack of Psychos2017/12/10 16:532018/02/03 20:17
corp logoUK Corp2017/08/13 22:052017/12/10 16:52
corp logoHax.2017/06/25 14:232017/08/13 22:04
corp logoOZONED2016/10/17 23:092017/06/25 14:22
corp logoSniggWaffe2016/05/24 20:512016/10/17 23:08
corp logoGaroun Investment Bank2016/05/24 20:502016/05/24 20:50
corp logoHax.2016/01/18 17:362016/05/24 20:49
corp logoGaroun Investment Bank2016/01/18 17:352016/01/18 17:35
corp logoUK Corp2015/08/06 23:052016/01/18 17:34
corp logoGaroun Investment Bank2015/08/06 23:032015/08/06 23:04
corp logo4S Corporation2015/04/09 23:592015/08/06 23:02
corp logoGaroun Investment Bank2015/04/09 23:592015/04/09 23:58
corp logoLazerhawks2014/11/30 14:502015/04/09 23:58
corp logoUK Corp2014/02/09 16:502014/11/30 14:49
corp logoGaroun Investment Bank2014/02/09 16:482014/02/09 16:49
corp logoScorpius Federation2013/11/09 01:212014/02/09 16:47
corp logoGaroun Investment Bank2013/11/03 17:432013/11/09 01:20
corp logoDysfunctional Chaos2013/10/13 15:132013/11/03 17:42
corp logoBoris Johnson's Love Children2013/08/05 19:152013/10/13 15:12
corp logoGaroun Investment Bank2013/08/05 19:142013/08/05 19:14
corp logoScorpius Federation2013/04/07 18:492013/08/05 19:13
corp logoPosthuman Society2012/11/08 17:072013/04/07 18:48
corp logoScorpius Federation2012/05/07 17:412012/11/08 17:06
corp logoCaldari Deep Space Ventures2012/04/12 20:252012/05/07 17:40
corp logoScorpius Federation2012/03/30 09:582012/04/12 20:24
corp logoGaroun Investment Bank2012/03/29 21:112012/03/30 09:57
corp logoScorpius Federation2012/03/17 14:092012/03/29 21:10
corp logoGaroun Investment Bank2011/12/31 09:252012/03/17 14:08
corp logoFerrum Aquilae Industria2011/10/28 10:242011/12/31 09:24
corp logoGaroun Investment Bank2011/10/27 22:102011/10/28 10:23
corp logoGreenSwarm2008/06/13 18:172011/10/27 22:09
corp logoGaroun Investment Bank2006/11/11 22:102008/06/13 18:16
corp logoTAG Corp2006/07/25 17:132006/11/11 22:09
corp logoFederal Navy Academy2006/07/12 17:252006/07/25 17:12


Any pilots, corporations, or alliances that relate to actual people or entities are purely coincidental.
7q/34ms Disclaimer A / C Brought to you by: Squizz Caphinator Forum Thread
EVE Online and the EVE logo are the registered trademarks of CCP hf. All rights are reserved worldwide. All other trademarks are the property of their respective owners. EVE Online, the EVE logo, EVE and all associated logos and designs are the intellectual property of CCP hf. All artwork, screenshots, characters, vehicles, storylines, world facts or other recognizable features of the intellectual property relating to these trademarks are likewise the intellectual property of CCP hf. CCP hf. has granted permission to evewho.com to use EVE Online and all associated logos and designs for promotional and information purposes on its website but does not endorse, and is not in any way affiliated with, evewho.com. CCP is in no way responsible for the content on or functioning of this website, nor can it be liable for any damage arising from the use of this website.